User: anonymous   Login
Location: Caltech
(34.1382°N, 118.1253°W)
Time: 02:36:29
(UTC-07:00)
Language:

GPS 2-04 Rocket1 - Orbit

View from above orbital plane
View from above orbital plane
View from above satellite
View from above satellite

Ground track
Ground track

The orbit data is extracted from the following two-line orbital elements,

1 20303U 89085B   18172.63575411 +.00001652 +00000-0 +57482-4 0  9993
2 20303 035.6282 249.1030 0102754 203.0510 156.5585 15.25087074557499
Epoch (UTC): 21 June 2018 15:15:29
Eccentricity: 0.0102754
inclination: 35.6282°
perigee height: 420 km
apogee height: 561 km
right ascension of ascending node: 249.1030°
argument of perigee: 203.0510°
revolutions per day: 15.25087074
mean anomaly at epoch: 156.5585°
orbit number at epoch: 55749

The dashed part of the orbit path shows where the satellite is in the earth's shadow,  

DLR